Terminal Aerodrome Forecast
Issued by NWS Wilmington, OH

Current Version | Previous Version | Graphics & Text | Print | Product List | Glossary On
Versions: 1 2 3 4 5 6 7 8 9 10 11 12 13 14 15 16 17 18 19 20 21 22 23
834
FTUS41 KILN 051133
TAFILN
TAF
KILN 051133Z 0512/0612 28006KT P6SM OVC012
     FM051400 29005KT P6SM BKN015
     FM051900 VRB03KT P6SM SCT015 BKN250
     FM052300 12004KT P6SM BKN250
     FM060400 12010KT P6SM BKN080
     FM061100 11010KT P6SM -RA BKN025=

USA.gov is the U.S. government's official web portal to all federal, state and local government web resources and services.